Find Starlink 4037

NORAD ID: 52663 Int'l Des: 2022-053 Owner: SPXS Country: US Constellation: starlink operational
LEOCIRCULAR

当前视图

正在加载3D地球...

About Starlink 4037

Starlink 4037 (NORAD 52663) is a starlink constellation satellite (v1.5) launched May 18, 2022 by SPXS of US. It operates in LEO, CIRCULAR orbit with a mass of 297.00 kg.

关于 Starlink 4037

正在加载描述...

即将过境

Passes for default location (London). Set your location on the main map for personalized predictions.

高度历史

Loading altitude history...

两行轨道根数

1 52663U 22053H 26170.41757183 -.00000171 00000-0 73202-5 0 9995
2 52663 53.1609 57.3430 0001283 90.2681 269.8458 15.08840142226409
Epoch: Jun 19, 2026 • Age: 21 hours

当前状态

高度 545.4 km
速度 7.60 km/s
星下点 53.23°N, 124.39°E
发射日期 May 18, 2022
运行时间 4 years
类型 internet

技术详情

分类 Payload
质量 297.00 kg
干质量 275.00 kg
总质量 297.00 kg
长度 0.20 m
直径 2.80 m
跨度 9.00 m
形状 Box + pan
制造商 SPXS
平台类型 Starlink
阶段状态 In Orbit
所有者/国家 SPXS/US

Most Searched